Grayling, MI

11:09 AM EDT on March 29, 2017 (GMT -0400)
Grayling

Weather History for KGOV - July, 2014

Change the Weather History Date:

Tuesday, July 15, 2014

  Actual Average (KHTL) Record (KHTL)
Temperature  
Mean Temperature 54 °F -  
Max Temperature 57 °F 80 °F 97 °F (1931)
Min Temperature 52 °F 55 °F 37 °F (1987)
Degree Days  
Heating Degree Days 10    
Growing Degree Days 4 (Base 50)    
Moisture  
Dew Point 54 °F    
Average Humidity 97    
Maximum Humidity 100    
Minimum Humidity 87    
Precipitation  
Precipitation 0.00 in - - ()
Sea Level Pressure  
Sea Level Pressure 29.79 in    
Wind  
Wind Speed 5 mph (WNW)    
Max Wind Speed 14 mph    
Max Gust Speed 21 mph    
Visibility 8 miles    
Events Fog , Rain    
Averages and records for this station are not official NWS values.
T = Trace of Precipitation, MM = Missing Value Source: NWS Daily Summary

Daily Weather History Graph

Daily Weather History Graph

Search for Another Location

Airport or City:

Trip Planner

Search our weather history database for the weather conditions in past years. The results will help you decide how hot, cold, wet, or windy it might be!

Date:

Astronomy

Jul. 15, 2014 Rise Set
Actual Time 6:07 AM EDT 9:21 PM EDT
Civil Twilight 5:32 AM EDT 9:57 PM EDT
Nautical Twilight 4:45 AM EDT 10:43 PM EDT
Astronomical Twilight 3:48 AM EDT 11:39 PM EDT
Moon 11:16 PM EDT (7/15) 10:12 AM EDT (7/15)
Length of Visible Light 16h 25m
Length of Day
15h 13m
Waning Gibbous, 85% of the Moon is Illuminated
Jul 15
Waning Gibbous
Jul 18
Last Quarter
Jul 26
New
Aug 3
First Quarter
Aug 10
Full

Hourly Weather History & Observations

Time (EDT) Temp. Dew Point Humidity Pressure Visibility Wind Dir Wind Speed Gust Speed Precip Events Conditions
12:16 AM 55.8 °F 55.4 °F 99% 29.80 in 10.0 mi Calm Calm - N/A   Mostly Cloudy
12:35 AM 55.9 °F 55.8 °F 99% 29.79 in 10.0 mi Calm Calm - N/A   Mostly Cloudy
12:56 AM 55.2 °F 55.2 °F 100% 29.79 in 5.0 mi Calm Calm - N/A   Scattered Clouds
1:16 AM 52.9 °F 52.9 °F 100% 29.78 in 0.5 mi Calm Calm - N/A Fog Fog
1:35 AM 52.7 °F 52.7 °F 100% 29.78 in 4.0 mi WSW 4.6 mph - N/A   Clear
1:56 AM 52.7 °F 52.7 °F 100% 29.78 in 7.0 mi Calm Calm - N/A   Clear
2:16 AM 52.7 °F 52.7 °F 100% 29.78 in 1.8 mi WSW 8.1 mph - N/A   Mostly Cloudy
2:35 AM 52.7 °F 52.7 °F 100% 29.77 in 7.0 mi West 5.8 mph - N/A   Overcast
2:56 AM 54.3 °F 54.3 °F 100% 29.76 in 10.0 mi WNW 4.6 mph - N/A   Overcast
3:16 AM 54.0 °F 54.0 °F 100% 29.76 in 10.0 mi Calm Calm - N/A   Mostly Cloudy
3:35 AM 54.1 °F 54.1 °F 100% 29.76 in 10.0 mi Calm Calm - N/A   Scattered Clouds
3:56 AM 55.4 °F 55.4 °F 100% 29.75 in 10.0 mi NNW 3.5 mph - N/A   Overcast
4:16 AM 54.7 °F 54.7 °F 100% 29.75 in 10.0 mi Calm Calm - N/A   Overcast
4:35 AM 55.2 °F 55.2 °F 100% 29.75 in 10.0 mi Calm Calm - N/A Rain Light Rain
4:56 AM 55.4 °F 55.4 °F 100% 29.75 in 10.0 mi West 3.5 mph - N/A Rain Light Rain
5:16 AM 54.5 °F 54.5 °F 100% 29.76 in 10.0 mi West 5.8 mph - N/A   Light Drizzle
5:35 AM 54.7 °F 54.7 °F 100% 29.76 in 7.0 mi WSW 4.6 mph - N/A   Overcast
5:56 AM 55.4 °F 55.4 °F 100% 29.75 in 7.0 mi West 5.8 mph - N/A Rain Light Rain
6:16 AM 55.4 °F 55.4 °F 100% 29.75 in 7.0 mi West 4.6 mph - N/A Rain Light Rain
6:35 AM 55.4 °F 55.4 °F 100% 29.74 in 7.0 mi WNW 4.6 mph - N/A Rain Rain
6:56 AM 55.4 °F 55.4 °F 100% 29.73 in 5.0 mi Calm Calm - N/A Rain Light Rain
7:16 AM 55.4 °F 55.4 °F 100% 29.74 in 5.0 mi Calm Calm - N/A Rain Rain
7:35 AM 55.4 °F 55.4 °F 100% 29.73 in 5.0 mi West 4.6 mph - N/A Rain Light Rain
7:56 AM 55.4 °F 55.4 °F 100% 29.73 in 4.0 mi NW 4.6 mph - N/A Rain Rain
8:16 AM 55.4 °F 55.4 °F 100% 29.74 in 3.0 mi WNW 4.6 mph - N/A Rain Rain
8:35 AM 55.4 °F 55.4 °F 100% 29.75 in 4.0 mi NNW 5.8 mph - N/A Rain Heavy Rain
8:56 AM 55.4 °F 55.4 °F 100% 29.74 in 10.0 mi North 9.2 mph - N/A Rain Rain
9:16 AM 55.4 °F 55.4 °F 100% 29.75 in 7.0 mi WSW 5.8 mph - N/A Rain Rain
9:35 AM 55.4 °F 54.1 °F 96% 29.75 in 10.0 mi Calm Calm - N/A Rain Rain
9:56 AM 55.4 °F 54.5 °F 97% 29.75 in 10.0 mi North 3.5 mph - N/A Rain Rain
10:16 AM 55.6 °F 54.5 °F 96% 29.75 in 10.0 mi NW 4.6 mph - N/A Rain Light Rain
10:35 AM 55.4 °F 54.7 °F 97% 29.75 in 10.0 mi NW 5.8 mph - N/A Rain Light Rain
10:56 AM 55.4 °F 54.7 °F 97% 29.75 in 10.0 mi NW 9.2 mph - N/A   Drizzle
11:16 AM 55.4 °F 55.2 °F 99% 29.76 in 7.0 mi WNW 11.5 mph 17.3 mph N/A   Drizzle
11:35 AM 55.4 °F 55.0 °F 99% 29.76 in 5.0 mi WNW 10.4 mph 16.1 mph N/A Rain Rain
11:56 AM 53.8 °F 53.8 °F 100% 29.77 in 5.0 mi WNW 10.4 mph 16.1 mph N/A Rain Light Rain
12:16 PM 55.0 °F 54.7 °F 99% 29.77 in 7.0 mi West 11.5 mph 17.3 mph N/A Rain Light Rain
12:35 PM 55.0 °F 54.7 °F 99% 29.78 in 7.0 mi West 10.4 mph 19.6 mph N/A Rain Rain
12:56 PM 55.2 °F 54.9 °F 99% 29.78 in 10.0 mi WNW 10.4 mph 17.3 mph N/A Rain Light Rain
1:16 PM 55.0 °F 54.9 °F 99% 29.79 in 7.0 mi WNW 9.2 mph - N/A Rain Rain
1:35 PM 55.4 °F 55.4 °F 100% 29.79 in 5.0 mi WNW 9.2 mph - N/A Rain Heavy Rain
1:56 PM 55.4 °F 55.2 °F 99% 29.79 in 7.0 mi WNW 9.2 mph - N/A Rain Light Rain
2:16 PM 55.4 °F 54.7 °F 97% 29.80 in 7.0 mi WNW 8.1 mph - N/A Rain Rain
2:35 PM 55.4 °F 55.0 °F 99% 29.80 in 10.0 mi West 11.5 mph - N/A Rain Light Rain
2:56 PM 55.4 °F 55.4 °F 100% 29.80 in 10.0 mi WNW 10.4 mph - N/A Rain Light Rain
3:16 PM 55.9 °F 55.0 °F 97% 29.80 in 10.0 mi WNW 12.7 mph 17.3 mph N/A Rain Light Rain
3:35 PM 57.6 °F 56.1 °F 95% 29.80 in 10.0 mi WNW 8.1 mph 18.4 mph N/A Rain Light Rain
3:56 PM 57.7 °F 55.4 °F 92% 29.80 in 10.0 mi WNW 13.8 mph 20.7 mph N/A   Overcast
4:16 PM 57.7 °F 54.9 °F 90% 29.81 in 10.0 mi NW 10.4 mph - N/A   Overcast
4:35 PM 57.7 °F 54.5 °F 89% 29.81 in 10.0 mi West 10.4 mph 16.1 mph N/A   Mostly Cloudy
4:56 PM 57.7 °F 54.3 °F 88% 29.81 in 10.0 mi WNW 13.8 mph 19.6 mph N/A   Overcast
5:16 PM 57.7 °F 54.7 °F 90% 29.81 in 10.0 mi WNW 9.2 mph - N/A   Light Drizzle
5:35 PM 57.7 °F 54.0 °F 87% 29.82 in 10.0 mi NW 13.8 mph 18.4 mph N/A   Overcast
5:56 PM 56.3 °F 53.2 °F 89% 29.83 in 10.0 mi NW 9.2 mph - N/A   Overcast
6:16 PM 57.0 °F 53.6 °F 88% 29.83 in 10.0 mi WNW 8.1 mph - N/A   Overcast
6:35 PM 57.4 °F 53.4 °F 87% 29.83 in 10.0 mi WNW 10.4 mph - N/A   Overcast
6:56 PM 57.6 °F 53.8 °F 87% 29.84 in 7.0 mi WNW 10.4 mph - N/A   Overcast
7:16 PM 55.4 °F 54.0 °F 95% 29.84 in 5.0 mi WNW 9.2 mph - N/A   Overcast
7:56 PM 55.4 °F 54.5 °F 97% 29.85 in 5.0 mi WNW 9.2 mph 20.7 mph N/A   Light Drizzle
8:16 PM 55.4 °F 53.8 °F 94% 29.86 in 10.0 mi West 12.7 mph 18.4 mph N/A   Overcast
8:36 PM 54.0 °F 52.0 °F 93% 29.86 in 10.0 mi West 12.7 mph 19.6 mph N/A   Overcast
8:56 PM 52.7 °F 50.4 °F 92% 29.87 in 10.0 mi West 11.5 mph 18.4 mph N/A   Overcast
9:16 PM 52.7 °F 50.4 °F 92% 29.87 in 10.0 mi West 8.1 mph 16.1 mph N/A   Overcast
9:36 PM 52.7 °F 50.5 °F 92% 29.88 in 10.0 mi West 9.2 mph 16.1 mph N/A   Overcast
9:56 PM 52.7 °F 50.7 °F 93% 29.88 in 10.0 mi West 6.9 mph - N/A   Overcast
10:16 PM 52.7 °F 50.9 °F 94% 29.88 in 10.0 mi West 9.2 mph - N/A   Overcast
10:36 PM 52.7 °F 50.9 °F 94% 29.88 in 10.0 mi WNW 9.2 mph - N/A   Overcast
10:56 PM 52.7 °F 50.9 °F 94% 29.88 in 10.0 mi West 10.4 mph - N/A   Overcast
11:16 PM 52.7 °F 50.9 °F 94% 29.88 in 10.0 mi West 9.2 mph 16.1 mph N/A   Overcast
11:36 PM 52.7 °F 50.9 °F 94% 29.88 in 10.0 mi WNW 8.1 mph - N/A   Overcast
11:56 PM 52.7 °F 51.1 °F 94% 29.88 in 10.0 mi West 10.4 mph - N/A   Overcast